TimeEST,TemperatureF,Dew PointF,Humidity,Sea Level PressureIn,VisibilityMPH,Wind Direction,Wind SpeedMPH,Gust SpeedMPH,PrecipitationIn,Events,Conditions,WindDirDegrees,DateUTC
12:51 AM,39.9,30.9,70,30.30,10.0,Calm,Calm,-,N/A,,Partly Cloudy,0,2012-12-01 05:51:00
1:51 AM,43.0,35.1,74,30.28,10.0,South,3.5,-,N/A,,Mostly Cloudy,190,2012-12-01 06:51:00
2:51 AM,42.1,35.1,76,30.29,10.0,Calm,Calm,-,N/A,,Mostly Cloudy,0,2012-12-01 07:51:00
3:51 AM,43.0,36.0,76,30.30,10.0,Calm,Calm,-,N/A,,Overcast,0,2012-12-01 08:51:00
4:51 AM,44.1,37.0,76,30.32,10.0,WSW,5.8,-,N/A,,Overcast,240,2012-12-01 09:51:00
5:51 AM,43.0,37.0,80,30.34,10.0,WSW,4.6,-,N/A,,Partly Cloudy,240,2012-12-01 10:51:00
6:51 AM,42.1,37.0,82,30.36,10.0,SSW,3.5,-,N/A,,Partly Cloudy,210,2012-12-01 11:51:00
7:51 AM,41.0,37.0,86,30.37,10.0,SSW,3.5,-,N/A,,Clear,200,2012-12-01 12:51:00
8:51 AM,46.9,41.0,80,30.37,10.0,Calm,Calm,-,N/A,,Clear,0,2012-12-01 13:51:00
9:51 AM,50.0,41.0,71,30.37,10.0,WSW,4.6,-,N/A,,Clear,250,2012-12-01 14:51:00
10:51 AM,53.1,41.0,64,30.37,10.0,WSW,4.6,-,N/A,,Clear,240,2012-12-01 15:51:00
11:51 AM,54.0,42.1,64,30.35,10.0,SW,6.9,-,N/A,,Clear,220,2012-12-01 16:51:00
12:51 PM,55.9,41.0,57,30.33,10.0,SW,8.1,-,N/A,,Scattered Clouds,220,2012-12-01 17:51:00
1:51 PM,57.0,41.0,55,30.30,10.0,Variable,5.8,-,N/A,,Partly Cloudy,0,2012-12-01 18:51:00
2:51 PM,57.0,39.9,53,30.29,10.0,SSW,8.1,-,N/A,,Clear,210,2012-12-01 19:51:00
3:51 PM,57.9,39.9,51,30.28,10.0,SSE,5.8,-,N/A,,Clear,160,2012-12-01 20:51:00
4:51 PM,55.0,37.9,53,30.28,10.0,SSE,4.6,-,N/A,,Clear,160,2012-12-01 21:51:00
5:51 PM,52.0,39.0,61,30.30,10.0,SSE,4.6,-,N/A,,Clear,160,2012-12-01 22:51:00
6:51 PM,48.9,39.0,69,30.31,10.0,South,6.9,-,N/A,,Clear,170,2012-12-01 23:51:00
7:51 PM,48.9,37.9,66,30.32,10.0,SSE,5.8,-,N/A,,Clear,150,2012-12-02 00:51:00
8:51 PM,50.0,37.9,63,30.30,10.0,South,6.9,-,N/A,,Clear,170,2012-12-02 01:51:00
9:51 PM,48.9,37.9,66,30.30,10.0,SSE,8.1,-,N/A,,Clear,160,2012-12-02 02:51:00
10:51 PM,48.9,37.9,66,30.29,10.0,SSE,8.1,-,N/A,,Clear,150,2012-12-02 03:51:00
11:51 PM,48.0,37.0,66,30.29,10.0,SSE,6.9,-,N/A,,Clear,150,2012-12-02 04:51:00